CBERS 4A

Satellite information

Favourite Embed

Satellite Type and Status

PAYLOADIN ORBIT

Key statistics

Satellite CBERS 4A at a glance.

Uptime

2086

Days in orbit

Revolutions

≈ 14.8

Per day

Orbit

SSO

Sun Synchronous Orbit

Inclination

97.8

Latest

Satellite identification and parameters

Extended collection of information and parameters for CBERS 4A.

Object identification

Identified? True

Debris? False

Object name: CBERS 4A

International designator: 2019-093E

Object number (NORAD): 44883

Object ID (CCSDS): 44883

Country: PEOPLES REPUBLIC OF CHINA/BRAZIL (CHBZ)

Current information (Y/N): Y

RCS size: LARGE

Orbital parameters

Period: 97.19 minutes

Inclination: 97.7871 deg

SMA: 7002.332 km

Apoapsis: 626.227 km

Periapsis: 622.167 km

RAAN: 318.0908 deg

Eccentricy: 0.00028988

Argument of periapsis: 51.2167 deg

Mean anomaly: 308.9305 deg

Mean motion: 14.8162633 rev/day

Mean motion (dot): 0.00002154 rev/day2

B* drag term: 0.00028042079 1/REarth

Two-line elements (TLE)

Creation date: Sept. 4, 2025, 10:13 a.m.

Reference frame: TEME

Reference center: EARTH

Epoch: Sept. 4, 2025, 5:08 a.m. UTC

TLE line 0: 0 CBERS 4A

TLE line 1: 1 44883U 19093E 25247.21398039 .00002154 00000-0 28042-3 0 9995

TLE line 2: 2 44883 97.7871 318.0908 0002899 51.2167 308.9305 14.81626330308730

Live tracking on map

Real-time ground track for satellite CBERS 4A.

In-orbit conjunctions

There are no conjunctions computed for CBERS 4A, at the moment. Check back to stay up to date, as we update our databases every day.

Go to all conjunctions

Associated space launch

On April 24, 2015, China and Brazil have signed the agreement for the construction of CBERS-4A. It's a third satellite in the continuity to the CBERS program, and a sixth CBERS satellite to be constructed. The CBERS satellites enhance and complement the existing remote sensing systems in an effort to improve our knowledge about the Earth environment and resources.

CBERS 4A was lifted into orbit during the mission ‘Long March 4B | CBERS-4A’, on board a Long March 4B space rocket.

The launch took place on Dec. 20, 2019, 3:22 a.m. from Launch Complex 9.

For more information about the launch, click the button.

Launch to space Long March 4B | CBERS-4A
Long March 4B | CBERS-4A

Agency: N/A

Status: Launch Successful

Launch date: Dec. 20, 2019, 3:22 a.m. UTC

Rocket: Long March 4B

Launch pad: Launch Complex 9

Location: Taiyuan Satellite Launch Center, People's Republic of China

...

Latest news about this satellite

News about space launch
Long March 4B lofts CBERS-04A and Ethiopia’s first satellite


Newsletter sign-up

Weekly statistics, charts and insights to help you stay on top of the space industry.